Dewpoint
54 56 58 60 64 66 68 70 70 71 70 69 68 70 68 69 69 68 71 73 72 72 73 70 70 72 76 76 74 72 73 71 70 68 65 66 66 66 67 69 69 70 70
53 57 57 59 62 66 67 70 71 72 71 71 73 70 71 69 69 69 71 73 73 73 73 76 77 76 73 73 75 73 70 70 70 68 69 66 63 68 67 68 71 70 69
52 55 58 59 63 65 67 70 72 73 72 71 70 71 71 71 72 70 70 70 73 73 73 75 74 74 74 71 76 74 74 68 66 71 67 61 57 60 62 68 66 69 67
53 55 57 58 60 64 66 69 72 72 72 73 71 72 70 73 69 70 70 71 73 73 73 74 76 76 73 74 73 72 73 73 67 63 63 66 66 60 56 57 61 67 65
51 53 55 58 59 62 64 67 72 73 72 73 73 70 71 69 69 70 73 74 74 74 73 75 76 76 73 75 77 73 75 77 71 66 63 64 60 61 60 55 56 59 66
50 53 55 58 60 61 63 65 71 73 73 73 74 73 72 72 70 71 70 69 69 70 75 74 77 77 76 75 79 77 76 77 77 74 69 63 59 56 55 54 57 60 68
50 52 55 57 60 63 63 64 69 72 73 72 72 73 73 74 73 74 70 72 68 67 70 74 75 73 78 77 78 77 77 73 76 76 75 66 60 60 61 60 59 63 64
44 48 53 57 61 62 64 65 66 71 71 72 73 74 74 71 70 71 71 70 68 69 73 75 76 76 76 77 78 78 76 74 76 74 75 70 60 62 63 62 61 60 59
48 50 53 56 60 62 65 66 68 69 70 69 72 73 74 74 71 73 74 70 73 71 73 74 75 77 74 75 77 76 72 72 71 70 71 70 64 62 64 63 63 62 59
51 51 53 56 59 61 64 66 68 69 69 68 69 70 71 73 73 73 74 75 74 75 76 76 76 77 76 75 75 71 69 72 69 68 71 70 68 64 65 64 64 64 62
50 55 56 58 59 62 63 66 67 68 68 68 69 70 69 71 72 72 73 75 75 77 77 77 76 75 74 74 73 72 72 72 71 70 70 71 70 65 67 67 67 64 61
54 57 59 60 61 63 64 65 66 66 68 71 73 72 73 74 72 74 74 74 75 74 74 74 73 73 72 72 71 70 70 69 69 70 70 70 69 70 69 68 68 65 65
58 59 61 64 65 66 67 67 67 68 70 73 72 73 73 72 71 71 72 71 71 71 71 71 72 71 71 70 70 71 70 70 70 70 70 70 70 70 67 68 67 64 63
61 61 64 67 70 71 72 72 71 72 73 72 72 72 71 70 70 69 69 68 68 69 69 70 69 68 68 68 70 70 70 70 70 70 70 70 70 71 71 71 71 71 66
61 63 66 69 71 72 73 73 72 73 72 72 70 69 68 68 68 67 67 67 66 66 67 66 65 65 64 63 68 67 66 66 65 66 67 67 66 66 67 68 70 71 71
63 66 68 70 71 72 73 73 72 71 71 69 67 67 67 66 65 66 65 65 64 65 64 64 63 63 61 62 63 64 63 64 63 62 62 63 64 64 62 63 64 63 65
65 67 68 70 71 71 72 70 69 69 67 66 66 66 66 65 65 65 65 64 64 64 63 63 64 63 62 60 62 63 62 61 61 61 62 61 61 64 63 62 61 61 62
66 68 69 71 71 69 68 67 66 66 66 66 66 67 66 66 67 66 65 64 63 63 63 62 62 61 59 59 60 62 61 61 60 60 60 60 61 62 63 61 61 62 61
68 69 69 70 70 68 66 65 65 66 66 65 66 66 66 66 66 65 64 62 62 61 61 61 62 61 60 58 58 60 58 58 59 59 60 59 58 58 59 61 60 60 61
69 69 69 68 65 65 64 64 64 65 65 65 65 66 66 66 64 64 63 63 62 61 60 62 62 61 61 57 57 59 55 58 56 60 61 59 60 57 58 61 59 58 59
70 69 66 64 65 65 64 64 64 64 65 65 65 66 65 65 65 64 64 63 62 62 61 61 61 60 60 59 56 57 59 55 55 55 56 57 57 56 56 57 60 59 59
67 63 64 66 65 65 65 64 64 65 65 65 65 65 64 61 62 64 63 62 61 60 60 58 54 55 59 56 55 56 57 59 51 49 50 52 55 55 54 53 56 58 58
63 62 64 65 65 66 65 65 65 65 64 64 64 64 64 64 64 62 60 54 56 52 52 49 48 49 48 51 55 55 56 56 48 45 50 53 50 51 51 54 54 51 45
62 62 62 63 64 66 66 66 66 65 64 64 64 64 64 63 60 51 48 48 47 46 45 44 45 46 45 46 47 46 46 50 50 53 46 50 53 53 49 47 46 44 44
61 61 62 64 66 67 67 66 65 64 63 63 62 62 60 62 57 54 50 48 54 47 45 44 45 44 42 47 47 47 46 47 48 50 44 44 44 44 44 44 44 44 44
62 62 63 65 66 67 66 66 64 62 61 60 60 59 58 57 51 49 49 48 48 47 46 48 46 45 46 44 43 43 44 46 47 46 43 43 44 44 44 44 43 44 46
Lifted_Index
-2 -2 -2 -3 -3 -4 -5 -5 -5 -5 -5 -5 -5 -4 -4 -4 -3 -3 -4 -4 -4 -4 -4 -4 -4 -5 -5 -5 -5 -5 -5 -4 -4 -3 -3 -3 -3 -3 -3 -4 -4 -4 -4
-2 -2 -2 -3 -3 -4 -5 -5 -5 -5 -5 -5 -5 -5 -5 -5 -4 -4 -4 -4 -4 -4 -4 -5 -5 -5 -5 -5 -5 -5 -5 -4 -4 -4 -3 -3 -2 -3 -3 -3 -3 -3 -3
-2 -2 -2 -3 -3 -4 -4 -5 -5 -5 -5 -5 -5 -5 -5 -5 -5 -5 -4 -5 -5 -5 -5 -5 -5 -5 -5 -5 -5 -5 -5 -4 -3 -3 -3 -2 -2 -1 -2 -2 -2 -3 -3
-2 -2 -3 -3 -3 -4 -4 -5 -5 -5 -5 -5 -5 -5 -5 -5 -5 -5 -5 -5 -5 -5 -5 -6 -6 -6 -6 -5 -5 -5 -5 -4 -3 -2 -2 -1 -1 -0 -0 -0 -1 -2 -2
-2 -2 -2 -3 -3 -4 -4 -5 -5 -5 -5 -5 -5 -5 -5 -5 -5 -5 -5 -5 -6 -6 -6 -6 -6 -6 -6 -6 -5 -5 -5 -5 -4 -3 -2 -1 0 1 1 1 1 -1 -2
-1 -2 -2 -3 -3 -4 -4 -5 -6 -6 -6 -6 -6 -6 -6 -6 -6 -6 -6 -6 -6 -6 -6 -6 -6 -7 -6 -6 -6 -6 -6 -5 -5 -4 -3 -1 0 1 1 1 0 -1 -2
-1 -2 -2 -3 -3 -4 -4 -4 -5 -6 -6 -6 -6 -6 -6 -6 -6 -6 -6 -6 -6 -5 -6 -6 -7 -7 -7 -7 -7 -7 -6 -6 -5 -5 -4 -2 -0 1 0 0 -1 -2 -3
-1 -1 -2 -3 -4 -4 -4 -4 -5 -6 -6 -6 -6 -6 -6 -6 -6 -6 -6 -6 -6 -6 -6 -7 -7 -7 -7 -7 -7 -7 -6 -6 -5 -5 -4 -2 -1 -0 -1 -1 -1 -2 -2
-1 -1 -2 -3 -4 -4 -5 -5 -5 -6 -6 -6 -6 -6 -6 -6 -6 -6 -7 -7 -7 -7 -7 -7 -7 -7 -7 -6 -6 -6 -5 -5 -4 -3 -3 -2 -1 -1 -1 -2 -2 -2 -2
-2 -2 -2 -3 -3 -4 -4 -5 -5 -5 -6 -5 -6 -6 -6 -6 -6 -7 -7 -7 -7 -7 -7 -7 -7 -7 -6 -6 -5 -4 -4 -3 -3 -2 -2 -1 -1 -0 -1 -1 -2 -2 -2
-2 -2 -2 -3 -3 -4 -4 -5 -5 -5 -5 -5 -6 -6 -6 -6 -6 -7 -7 -7 -7 -7 -6 -6 -6 -5 -5 -4 -4 -3 -3 -2 -2 -2 -2 -1 -1 -1 -1 -1 -2 -2 -1
-2 -3 -3 -3 -4 -4 -4 -4 -5 -5 -5 -6 -6 -6 -6 -6 -6 -6 -6 -5 -5 -5 -4 -4 -3 -3 -3 -3 -3 -3 -2 -2 -1 -1 -1 -2 -2 -2 -1 -1 -2 -1 -1
-3 -3 -4 -4 -5 -5 -5 -5 -5 -5 -5 -6 -6 -6 -5 -5 -5 -4 -4 -3 -3 -2 -2 -1 -1 -1 -0 -1 -1 -2 -2 -1 -1 -1 -1 -2 -2 -2 -2 -2 -2 -2 -2
-4 -4 -5 -5 -5 -6 -6 -6 -6 -6 -6 -5 -5 -5 -5 -4 -3 -2 -1 -0 0 1 1 1 2 2 2 1 0 -0 -1 -1 -1 -1 -1 -1 -1 -2 -2 -2 -3 -2 -2
-4 -5 -6 -6 -6 -6 -6 -6 -6 -6 -5 -5 -4 -3 -3 -2 -0 1 2 3 3 3 3 4 4 4 4 3 2 1 0 0 0 0 0 0 -0 -0 -1 -1 -2 -2 -2
-5 -5 -6 -6 -6 -6 -6 -5 -5 -4 -4 -3 -1 -0 1 2 3 3 4 4 5 5 5 5 5 6 6 5 4 3 2 2 2 2 2 2 2 1 1 0 -1 -1 -1
-5 -6 -6 -6 -6 -5 -5 -4 -3 -2 -1 0 1 2 3 3 4 4 5 5 6 6 6 6 6 7 7 6 5 4 4 4 3 3 3 3 3 3 3 2 1 1 0
-6 -6 -6 -6 -5 -4 -3 -2 -1 0 1 2 3 3 3 3 4 4 5 5 6 6 6 6 6 7 7 7 6 5 4 4 5 5 5 5 5 4 4 3 3 2 2
-6 -6 -5 -5 -4 -2 -1 0 1 2 2 3 3 3 3 3 4 4 5 5 6 6 6 5 5 6 7 7 6 5 5 5 5 5 6 6 6 6 5 4 3 3 3
-6 -5 -5 -3 -2 -1 0 1 2 3 3 3 3 4 4 4 4 5 5 6 6 5 5 5 5 6 6 7 7 5 5 5 5 5 6 7 7 7 6 5 4 4 3
-5 -4 -3 -2 -1 0 1 2 3 3 4 4 4 4 4 5 5 5 6 6 6 6 6 6 6 6 7 7 7 6 5 5 6 6 7 7 8 8 7 6 5 4 4
-4 -3 -2 -1 0 1 2 3 3 4 4 4 4 4 5 5 5 5 6 7 7 7 7 7 7 7 7 8 8 8 7 7 8 9 9 9 9 9 8 8 7 6 5
-2 -2 -1 -0 0 1 2 3 3 4 4 4 4 4 4 5 5 6 7 8 8 8 8 8 8 8 9 9 9 9 9 10 10 11 11 10 10 10 9 9 8 8 7
-2 -1 -1 -0 0 0 1 2 3 3 4 4 4 4 4 4 5 7 8 9 9 10 10 10 9 9 10 10 10 10 11 11 11 10 10 10 10 9 9 8 8 8 8
-1 -1 -1 -1 -1 -1 -0 1 2 3 3 3 3 3 3 4 6 7 8 9 10 11 11 11 10 10 11 11 11 11 11 11 11 10 9 9 9 9 8 8 8 8 8
-1 -1 -1 -1 -1 -1 -1 1 2 3 3 3 3 3 3 4 5 7 8 9 11 12 12 11 11 11 11 11 12 12 12 12 11 10 9 9 9 8 8 8 8 8 8